Location: San Gennaro Vesuviano
(40.8833°N, 14.5333°E)
Time: 09:48:03
(UTC+00:00)

Cosmos 468 Rocket - Pass Details

Date: 22 April 2021
Orbit: 745 x 779 km, 74.0° (Epoch: 10 May)

Event Time Altitude Azimuth Distance (km) Brightness Sun altitude
Rises 20:45:00 0° 340° (NNW) 3,196 8.3 -28.1°
Reaches altitude 10° 20:47:21 10° 340° (NNW) 2,270 7.3 -28.4°
Enters shadow 20:51:46 66° 333° (NNW) 817 4.2 -28.9°
